Zurück zum Katalog

CZ-6A DEB

AktivSSO
NORAD 54348·DEBRIS·🇨🇳 China

Gestartet Nov 11, 2022 von Taiyuan Satellite Launch Center

Loading…

Nächste Überflüge (nächste 24 Stunden)

TLE

AktuellSource: Space-Track

Epoche: Sep 14, 2026, 01:10 UTC

1 54348U 22151CT  26257.04865099  .00000671  00000-0  23129-3 0  9992
2 54348  98.6223 285.7629 0101686 135.3317 225.6117 14.36249284200346

Verfolge CZ-6A DEB in Echtzeit mit AllMySat

Download on the App Store